This demonstration page uses our WeatherBlox Daily Observations layout. Learn more.

Hourly Observations for August 5, 2015

Temp ( °F °C ) Dew Point ( °F °C ) Humidity (%) Winds ( mph kmh ) Pressure ( in mb ) Visibility ( mi km ) Precip ( " mm )
12:15 am 00:15 Partly Cloudy with Light Rain 63 17.2 62 16.5 96 96 Calm 29.94 1014 5 8.0467 0.01 0.254
12:35 am 00:35 Partly Cloudy with Light Rain 63 17.1 61 16.3 95 95 Calm 29.94 1014 5 8.0467 0.04 1.016
12:55 am 00:55 Partly Cloudy 62 16.8 61 16 95 95 E 3 6 29.94 1014 7 11.26538 0.04 1.016
1:15 am 01:15 Cloudy 63 17.1 61 16.3 95 95 ESE 5 7 29.94 1014 7 11.26538 0 0
1:35 am 01:35 Cloudy 63 17.1 61 16.3 95 95 Calm 29.94 1014 10 16.0934 0 0
1:55 am 01:55 Mostly Cloudy 63 17.2 62 16.5 96 96 Calm 29.94 1014 7 11.26538 0 0
2:15 am 02:15 Mostly Cloudy 63 17.2 62 16.5 96 96 Calm 29.94 1014 7 11.26538 0 0
2:35 am 02:35 Mostly Cloudy 63 17.1 61 16.2 94 94 N 3 6 29.94 1014 7 11.26538 0 0
2:55 am 02:55 Partly Cloudy with Mist and Fog 62 16.7 61 16 96 96 N 5 7 29.94 1014 5 8.0467 0 0
3:15 am 03:15 Clear with Mist and Fog 62 16.5 60 15.7 95 95 Calm 29.94 1014 5 8.0467 0 0
3:35 am 03:35 Partly Cloudy with Mist and Fog 62 16.5 60 15.6 94 94 Calm 29.94 1014 4 6.43736 0 0
3:55 am 03:55 Partly Cloudy with Mist and Fog 60 15.7 59 15 96 96 N 3 6 29.94 1014 3 4.82802 0 0
4:15 am 04:15 Partly Cloudy with Mist and Fog 60 15.8 59 15.1 96 96 NW 3 6 29.94 1014 4 6.43736 0 0
4:35 am 04:35 Clear with Mist and Fog 60 15.8 59 15.1 96 96 Calm 29.94 1014 4 6.43736 0 0
4:55 am 04:55 Clear with Mist and Fog 60 15.5 59 14.8 96 96 Calm 29.94 1014 4 6.43736 0 0
5:15 am 05:15 Clear with Mist and Fog 60 15.6 59 15 96 96 NNW 5 7 29.94 1014 4 6.43736 0 0
5:35 am 05:35 Clear with Mist and Fog 60 15.8 59 15.1 96 96 N 3 6 29.94 1014 4 6.43736 0 0
5:55 am 05:55 Mostly Cloudy with Mist and Fog 60 15.6 59 15 96 96 Calm 29.94 1014 4 6.43736 0 0
6:15 am 06:15 Partly Cloudy with Mist and Fog 60 15.6 59 15 96 96 N 3 6 29.94 1014 3 4.82802 0 0
6:35 am 06:35 Partly Cloudy with Mist and Fog 59 15.1 58 14.5 96 96 NNE 3 6 29.97 1015 2.5 4.02335 0 0
6:55 am 06:55 Cloudy with Fog 59 15 58 14.3 96 96 Calm 29.97 1015 5 8.0467 0 0
7:15 am 07:15 Cloudy with Fog 59 15.1 58 14.5 96 96 Calm 30 1016 5 8.0467 0 0
7:35 am 07:35 Cloudy with Fog 60 15.5 59 14.9 96 96 Calm 30 1016 0.25 0.402335 0 0
7:55 am 07:55 Partly Cloudy with Mist and Fog 61 16.2 60 15.6 96 96 Calm 30 1016 2.5 4.02335 0 0
8:15 am 08:15 Cloudy with Mist and Fog 63 17 61 16.3 96 96 Calm 29.97 1015 1 1.60934 0 0
8:35 am 08:35 Cloudy with Fog 63 17.1 62 16.5 96 96 Calm 29.97 1015 0.5 0.80467 0 0
8:55 am 08:55 Cloudy with Mist and Fog 63 17.1 62 16.5 96 96 Calm 29.97 1015 1.5 2.41401 0 0
9:15 am 09:15 Cloudy with Mist and Fog 64 17.9 63 17.3 96 96 Calm 29.97 1015 4 6.43736 0 0
9:35 am 09:35 Cloudy with Mist and Fog 64 18 63 17.3 96 96 Calm 29.97 1015 5 8.0467 0 0
9:55 am 09:55 Mostly Cloudy 66 19 65 18.2 95 95 Calm 29.97 1015 7 11.26538 0 0
10:15 am 10:15 Sunny 66 19 64 17.7 92 92 SE 3 6 29.97 1015 10 16.0934 0 0
10:35 am 10:35 Sunny 69 20.8 64 17.5 82 82 Calm 29.94 1014 10 16.0934 0 0
10:55 am 10:55 Sunny 70 21.2 63 17.3 79 79 Calm 29.94 1014 10 16.0934 0 0
11:15 am 11:15 Partly Cloudy 72 22.2 63 17.1 73 73 ESE 3 6 29.94 1014 10 16.0934 0 0
11:35 am 11:35 Sunny 73 22.8 62 16.9 69 69 Calm 29.94 1014 10 16.0934 0 0
11:55 am 11:55 Partly Cloudy 74 23.1 62 16.9 68 68 Calm 29.94 1014 10 16.0934 0 0
12:15 pm 12:15 Partly Cloudy 74 23.3 62 16.8 67 67 Calm 29.94 1014 10 16.0934 0 0
12:35 pm 12:35 Sunny 75 24.1 62 16.8 64 64 Calm 29.91 1013 10 16.0934 0 0
12:55 pm 12:55 Partly Cloudy 76 24.6 62 16.9 62 62 Calm 29.91 1013 10 16.0934 0 0
1:15 pm 13:15 Sunny 77 25 62 16.5 59 59 E 6 9 29.91 1013 10 16.0934 0 0
1:35 pm 13:35 Sunny 78 25.3 62 16.8 59 59 SE 9 15 29.91 1013 10 16.0934 0 0
1:55 pm 13:55 Partly Cloudy 78 25.4 62 16.4 58 58 ESE 3 6 29.91 1013 10 16.0934 0 0
2:15 pm 14:15 Partly Cloudy 78 25.7 62 16.8 58 58 ESE 6 9 29.88 1012 10 16.0934 0 0
2:35 pm 14:35 Partly Cloudy 79 26.2 63 17.2 58 58 E 3 6 29.88 1012 10 16.0934 0 0
2:55 pm 14:55 Partly Cloudy 80 26.4 62 16.8 56 56 ESE 6 9 29.88 1012 10 16.0934 0 0
3:15 pm 15:15 Sunny 79 26.2 62 16.6 56 56 ESE 6 9 29.88 1012 10 16.0934 0 0
3:35 pm 15:35 Partly Cloudy 80 26.5 63 17.2 57 57 E 12 19 29.85 1011 10 16.0934 0 0
3:55 pm 15:55 Sunny 80 26.5 63 17.3 57 57 E 13 20 29.85 1011 10 16.0934 0 0
4:15 pm 16:15 Sunny 80 26.6 63 17 56 56 E 7 11 29.85 1011 10 16.0934 0 0
4:35 pm 16:35 Partly Cloudy 80 26.6 63 17.4 57 57 SE 7 11 29.85 1011 10 16.0934 0 0
4:55 pm 16:55 Partly Cloudy 80 26.5 63 17.2 57 57 SE 8 13 29.85 1011 10 16.0934 0 0
5:15 pm 17:15 Sunny 80 26.7 64 17.6 57 57 ESE 9 15 29.85 1011 10 16.0934 0 0
5:35 pm 17:35 Sunny 80 26.6 63 17.4 57 57 E 9 15 29.85 1011 10 16.0934 0 0
5:55 pm 17:55 Sunny 80 26.6 64 17.6 58 58 ESE 7 11 29.85 1011 10 16.0934 0 0
6:15 pm 18:15 Sunny 80 26.8 64 17.8 58 58 ESE 9 15 29.83 1010 10 16.0934 0 0
6:35 pm 18:35 Sunny 80 26.6 64 17.9 59 59 SE 8 13 29.83 1010 10 16.0934 0 0
6:55 pm 18:55 Sunny 80 26.6 62 16.9 55 55 SSE 8 13 29.83 1010 10 16.0934 0 0
7:15 pm 19:15 Sunny 80 26.5 63 17.3 57 57 SE 6 9 29.83 1010 10 16.0934 0 0
7:35 pm 19:35 Sunny 78 25.4 64 17.6 62 62 ESE 7 11 29.85 1011 10 16.0934 0 0
7:55 pm 19:55 Sunny 75 24.1 66 18.8 72 72 ESE 6 9 29.85 1011 10 16.0934 0 0
8:15 pm 20:15 Sunny 74 23.4 65 18.6 75 75 ESE 8 13 29.85 1011 10 16.0934 0 0
8:35 pm 20:35 Sunny 73 22.5 66 18.7 79 79 SE 7 11 29.85 1011 10 16.0934 0 0
8:55 pm 20:55 Clear 72 22 66 18.7 82 82 SE 6 9 29.88 1012 7 11.26538 0 0
9:15 pm 21:15 Clear 71 21.5 66 18.8 85 85 SE 6 9 29.88 1012 10 16.0934 0 0
9:35 pm 21:35 Clear 70 21.1 66 18.7 86 86 SE 7 11 29.88 1012 10 16.0934 0 0
9:55 pm 21:55 Clear 70 21.1 65 18.6 86 86 SE 7 11 29.88 1012 10 16.0934 0 0
10:15 pm 22:15 Clear 69 20.8 65 18.5 87 87 SSE 5 7 29.88 1012 10 16.0934 0 0
10:35 pm 22:35 Clear 69 20.3 65 18.3 88 88 SSE 7 11 29.88 1012 10 16.0934 0 0
10:55 pm 22:55 Clear 68 20.1 65 18.5 91 91 SSE 6 9 29.88 1012 10 16.0934 0 0
11:15 pm 23:15 Clear 68 20.1 65 18.5 91 91 SSE 7 11 29.88 1012 10 16.0934 0 0
11:35 pm 23:35 Clear 68 20 65 18.5 91 91 SSE 6 9 29.88 1012 10 16.0934 0 0
11:55 pm 23:55 Clear 68 20 65 18.5 91 91 SSE 6 9 29.88 1012 10 16.0934 0 0

Powered by AerisWeather